Time,TemperatureF,DewpointF,PressureIn,WindDirection,WindDirectionDegrees,WindSpeedMPH,WindSpeedGustMPH,Humidity,HourlyPrecipIn,Conditions,Clouds,dailyrainin,SoftwareType,DateUTC
2013-06-14 00:02:00,52.0,48.0,-100.00,West,270,0.0,1.0,88,-99.99,,,-99.99,,2013-06-14 07:02:00,
2013-06-14 00:12:00,52.0,48.0,-100.00,West,270,0.0,1.0,88,-99.99,,,-99.99,,2013-06-14 07:12:00,
2013-06-14 00:22:00,52.0,48.0,-100.00,West,270,0.0,1.0,88,-99.99,,,-99.99,,2013-06-14 07:22:00,
2013-06-14 00:33:00,52.0,48.0,-100.00,North,-999,0.0,0.0,88,-99.99,,,-99.99,,2013-06-14 07:33:00,
2013-06-14 00:43:00,52.0,48.0,-100.00,SW,225,1.0,1.0,88,-99.99,,,-99.99,,2013-06-14 07:43:00,
2013-06-14 00:53:00,52.0,48.0,-100.00,North,-999,0.0,0.0,88,-99.99,,,-99.99,,2013-06-14 07:53:00,
2013-06-14 01:02:00,52.0,48.0,-100.00,North,-999,0.0,0.0,88,-99.99,,,-99.99,,2013-06-14 08:02:00,
2013-06-14 01:12:00,52.0,48.0,-100.00,North,-999,0.0,0.0,88,-99.99,,,-99.99,,2013-06-14 08:12:00,
2013-06-14 01:22:00,51.0,48.0,-100.00,North,-999,0.0,0.0,88,-99.99,,,-99.99,,2013-06-14 08:22:00,
2013-06-14 01:33:00,51.0,48.0,-100.00,North,-999,0.0,0.0,89,-99.99,,,-99.99,,2013-06-14 08:33:00,
2013-06-14 01:43:00,51.0,48.0,-100.00,North,-999,0.0,0.0,89,-99.99,,,-99.99,,2013-06-14 08:43:00,
2013-06-14 01:53:00,51.0,48.0,-100.00,North,-999,0.0,0.0,89,-99.99,,,-99.99,,2013-06-14 08:53:00,
2013-06-14 02:01:00,51.0,47.0,-100.00,North,-999,0.0,0.0,89,-99.99,,,-99.99,,2013-06-14 09:01:00,
2013-06-14 02:12:00,51.0,47.0,-100.00,North,-999,0.0,0.0,89,-99.99,,,-99.99,,2013-06-14 09:12:00,
2013-06-14 02:22:00,51.0,48.0,-100.00,North,-999,0.0,0.0,89,-99.99,,,-99.99,,2013-06-14 09:22:00,
2013-06-14 02:33:00,51.0,48.0,-100.00,North,-999,0.0,0.0,89,-99.99,,,-99.99,,2013-06-14 09:33:00,
2013-06-14 02:43:00,51.0,48.0,-100.00,North,-999,0.0,0.0,90,-99.99,,,-99.99,,2013-06-14 09:43:00,
2013-06-14 02:53:00,51.0,48.0,-100.00,North,-999,0.0,0.0,90,-99.99,,,-99.99,,2013-06-14 09:53:00,
2013-06-14 03:01:00,50.0,47.0,-100.00,North,-999,0.0,0.0,90,-99.99,,,-99.99,,2013-06-14 10:01:00,
2013-06-14 03:11:00,50.0,47.0,-100.00,North,-999,0.0,0.0,90,-99.99,,,-99.99,,2013-06-14 10:11:00,
2013-06-14 03:22:00,50.0,47.0,-100.00,North,-999,0.0,0.0,90,-99.99,,,-99.99,,2013-06-14 10:22:00,
2013-06-14 03:34:00,50.0,47.0,-100.00,North,-999,0.0,0.0,90,-99.99,,,-99.99,,2013-06-14 10:34:00,
2013-06-14 03:43:00,50.0,48.0,-100.00,North,-999,0.0,0.0,90,-99.99,,,-99.99,,2013-06-14 10:43:00,
2013-06-14 03:52:00,50.0,47.0,-100.00,North,-999,0.0,0.0,90,-99.99,,,-99.99,,2013-06-14 10:52:00,
2013-06-14 04:02:00,50.0,48.0,-100.00,North,-999,0.0,0.0,91,-99.99,,,-99.99,,2013-06-14 11:02:00,
2013-06-14 04:11:00,50.0,48.0,-100.00,North,-999,0.0,0.0,91,-99.99,,,-99.99,,2013-06-14 11:11:00,
2013-06-14 04:22:00,50.0,48.0,-100.00,North,-999,0.0,0.0,91,-99.99,,,-99.99,,2013-06-14 11:22:00,
2013-06-14 04:32:00,50.0,48.0,-100.00,North,-999,0.0,0.0,91,-99.99,,,-99.99,,2013-06-14 11:32:00,
2013-06-14 04:43:00,50.0,47.0,-100.00,North,-999,0.0,0.0,91,-99.99,,,-99.99,,2013-06-14 11:43:00,
2013-06-14 04:52:00,50.0,47.0,-100.00,North,-999,0.0,0.0,91,-99.99,,,-99.99,,2013-06-14 11:52:00,
2013-06-14 05:01:00,49.0,47.0,-100.00,North,-999,0.0,0.0,91,-99.99,,,-99.99,,2013-06-14 12:01:00,
2013-06-14 05:11:00,49.0,47.0,-100.00,North,-999,0.0,0.0,91,-99.99,,,-99.99,,2013-06-14 12:11:00,
2013-06-14 05:22:00,49.0,47.0,-100.00,North,-999,0.0,0.0,91,-99.99,,,-99.99,,2013-06-14 12:22:00,
2013-06-14 05:32:00,49.0,46.0,-100.00,North,-999,0.0,0.0,91,-99.99,,,-99.99,,2013-06-14 12:32:00,
2013-06-14 05:43:00,48.0,45.0,-100.00,North,-999,0.0,0.0,91,-99.99,,,-99.99,,2013-06-14 12:43:00,
2013-06-14 05:52:00,47.0,45.0,-100.00,North,-999,0.0,0.0,91,-99.99,,,-99.99,,2013-06-14 12:52:00,
2013-06-14 06:02:00,47.0,45.0,-100.00,North,-999,0.0,0.0,91,-99.99,,,-99.99,,2013-06-14 13:02:00,
2013-06-14 06:11:00,47.0,44.0,-100.00,North,-999,0.0,0.0,91,-99.99,,,-99.99,,2013-06-14 13:11:00,
2013-06-14 06:22:00,46.0,44.0,-100.00,North,-999,0.0,0.0,91,-99.99,,,-99.99,,2013-06-14 13:22:00,
2013-06-14 06:33:00,46.0,44.0,-100.00,North,-999,0.0,0.0,91,-99.99,,,-99.99,,2013-06-14 13:33:00,
2013-06-14 06:43:00,47.0,44.0,-100.00,North,-999,0.0,0.0,91,-99.99,,,-99.99,,2013-06-14 13:43:00,
2013-06-14 06:53:00,47.0,44.0,-100.00,North,-999,0.0,0.0,91,-99.99,,,-99.99,,2013-06-14 13:53:00,
2013-06-14 07:02:00,47.0,44.0,-100.00,North,-999,0.0,0.0,91,-99.99,,,-99.99,,2013-06-14 14:02:00,
2013-06-14 07:11:00,47.0,45.0,-100.00,North,-999,0.0,0.0,91,-99.99,,,-99.99,,2013-06-14 14:11:00,
2013-06-14 07:22:00,47.0,45.0,-100.00,North,-999,0.0,0.0,91,-99.99,,,-99.99,,2013-06-14 14:22:00,
2013-06-14 07:34:00,47.0,45.0,-100.00,North,-999,0.0,0.0,91,-99.99,,,-99.99,,2013-06-14 14:34:00,
2013-06-14 07:43:00,48.0,45.0,-100.00,North,-999,0.0,0.0,91,-99.99,,,-99.99,,2013-06-14 14:43:00,
2013-06-14 07:52:00,49.0,46.0,-100.00,West,270,0.0,1.0,91,-99.99,,,-99.99,,2013-06-14 14:52:00,
2013-06-14 08:01:00,49.0,46.0,-100.00,West,270,0.0,1.0,91,-99.99,,,-99.99,,2013-06-14 15:01:00,
2013-06-14 08:11:00,50.0,47.0,-100.00,North,-999,0.0,0.0,91,-99.99,,,-99.99,,2013-06-14 15:11:00,
2013-06-14 08:22:00,50.0,48.0,-100.00,North,-999,0.0,0.0,91,-99.99,,,-99.99,,2013-06-14 15:22:00,
2013-06-14 08:33:00,51.0,48.0,-100.00,North,-999,0.0,0.0,91,-99.99,,,-99.99,,2013-06-14 15:33:00,
2013-06-14 08:43:00,51.0,48.0,-100.00,North,-999,0.0,0.0,91,-99.99,,,-99.99,,2013-06-14 15:43:00,
2013-06-14 08:53:00,51.0,49.0,-100.00,North,-999,0.0,0.0,91,-99.99,,,-99.99,,2013-06-14 15:53:00,
2013-06-14 09:01:00,51.0,49.0,-100.00,North,-999,0.0,0.0,91,-99.99,,,-99.99,,2013-06-14 16:01:00,
2013-06-14 09:11:00,52.0,49.0,-100.00,North,-999,0.0,0.0,90,-99.99,,,-99.99,,2013-06-14 16:11:00,
2013-06-14 09:22:00,52.0,48.0,-100.00,North,-999,0.0,0.0,88,-99.99,,,-99.99,,2013-06-14 16:22:00,
2013-06-14 09:32:00,52.0,48.0,-100.00,North,-999,0.0,0.0,86,-99.99,,,-99.99,,2013-06-14 16:32:00,
2013-06-14 09:43:00,52.0,48.0,-100.00,North,-999,0.0,0.0,86,-99.99,,,-99.99,,2013-06-14 16:43:00,
2013-06-14 09:53:00,53.0,48.0,-100.00,West,270,1.0,1.0,83,-99.99,,,-99.99,,2013-06-14 16:53:00,
2013-06-14 10:02:00,53.0,48.0,-100.00,West,270,1.0,1.0,83,-99.99,,,-99.99,,2013-06-14 17:02:00,
2013-06-14 10:11:00,55.0,49.0,-100.00,North,-999,0.0,0.0,81,-99.99,,,-99.99,,2013-06-14 17:11:00,
2013-06-14 10:22:00,56.0,49.0,-100.00,North,-999,0.0,0.0,77,-99.99,,,-99.99,,2013-06-14 17:22:00,
2013-06-14 10:34:00,56.0,48.0,-100.00,North,-999,0.0,0.0,72,-99.99,,,-99.99,,2013-06-14 17:34:00,
2013-06-14 10:43:00,56.0,48.0,-100.00,North,-999,0.0,0.0,72,-99.99,,,-99.99,,2013-06-14 17:43:00,
2013-06-14 10:53:00,57.0,47.0,-100.00,West,270,1.0,2.0,69,-99.99,,,-99.99,,2013-06-14 17:53:00,
2013-06-14 11:02:00,57.0,47.0,-100.00,West,270,1.0,2.0,69,-99.99,,,-99.99,,2013-06-14 18:02:00,
2013-06-14 11:11:00,58.0,45.0,-100.00,North,-999,0.0,0.0,62,-99.99,,,-99.99,,2013-06-14 18:11:00,
2013-06-14 11:21:00,58.0,45.0,-100.00,SE,135,0.0,1.0,63,-99.99,,,-99.99,,2013-06-14 18:21:00,
2013-06-14 11:32:00,58.0,45.0,-100.00,SE,135,0.0,1.0,63,-99.99,,,-99.99,,2013-06-14 18:32:00,
2013-06-14 11:42:00,59.0,44.0,-100.00,North,-999,0.0,0.0,59,-99.99,,,-99.99,,2013-06-14 18:42:00,
2013-06-14 11:52:00,59.0,46.0,-100.00,North,-999,0.0,0.0,62,-99.99,,,-99.99,,2013-06-14 18:52:00,
2013-06-14 12:01:00,59.0,46.0,-100.00,North,-999,0.0,0.0,62,-99.99,,,-99.99,,2013-06-14 19:01:00,
2013-06-14 12:11:00,59.0,45.0,-100.00,North,-999,0.0,0.0,60,-99.99,,,-99.99,,2013-06-14 19:11:00,
2013-06-14 12:21:00,59.0,45.0,-100.00,North,-999,0.0,0.0,60,-99.99,,,-99.99,,2013-06-14 19:21:00,
2013-06-14 12:32:00,61.0,46.0,-100.00,North,-999,0.0,0.0,58,-99.99,,,-99.99,,2013-06-14 19:32:00,
2013-06-14 12:43:00,63.0,44.0,-100.00,North,0,0.0,1.0,50,-99.99,,,-99.99,,2013-06-14 19:43:00,
2013-06-14 12:53:00,63.0,44.0,-100.00,NE,45,1.0,1.0,50,-99.99,,,-99.99,,2013-06-14 19:53:00,
2013-06-14 13:01:00,63.0,44.0,-100.00,NE,45,1.0,1.0,50,-99.99,,,-99.99,,2013-06-14 20:01:00,
2013-06-14 13:11:00,63.0,44.0,-100.00,East,90,0.0,1.0,51,-99.99,,,-99.99,,2013-06-14 20:11:00,
2013-06-14 13:22:00,63.0,45.0,-100.00,North,-999,0.0,0.0,52,-99.99,,,-99.99,,2013-06-14 20:22:00,
2013-06-14 13:33:00,63.0,44.0,-100.00,East,90,0.0,1.0,50,-99.99,,,-99.99,,2013-06-14 20:33:00,
2013-06-14 13:43:00,63.0,44.0,-100.00,East,90,0.0,1.0,50,-99.99,,,-99.99,,2013-06-14 20:43:00,
2013-06-14 13:53:00,65.0,43.0,-100.00,East,90,3.0,6.0,45,-99.99,,,-99.99,,2013-06-14 20:53:00,
2013-06-14 14:02:00,67.0,43.0,-100.00,East,90,1.0,3.0,43,-99.99,,,-99.99,,2013-06-14 21:02:00,
2013-06-14 14:11:00,67.0,43.0,-100.00,East,90,1.0,3.0,43,-99.99,,,-99.99,,2013-06-14 21:11:00,
2013-06-14 14:22:00,67.0,45.0,-100.00,NE,45,1.0,1.0,44,-99.99,,,-99.99,,2013-06-14 21:22:00,
2013-06-14 14:34:00,67.0,45.0,-100.00,NE,45,1.0,1.0,44,-99.99,,,-99.99,,2013-06-14 21:34:00,
2013-06-14 14:42:00,67.0,44.0,-100.00,NE,45,1.0,1.0,43,-99.99,,,-99.99,,2013-06-14 21:42:00,
2013-06-14 14:52:00,68.0,44.0,-100.00,NE,45,1.0,2.0,42,-99.99,,,-99.99,,2013-06-14 21:52:00,
2013-06-14 15:01:00,68.0,44.0,-100.00,NE,45,1.0,1.0,42,-99.99,,,-99.99,,2013-06-14 22:01:00,
2013-06-14 15:11:00,68.0,44.0,-100.00,NE,45,1.0,1.0,42,-99.99,,,-99.99,,2013-06-14 22:11:00,
2013-06-14 15:22:00,68.0,44.0,-100.00,NE,45,1.0,1.0,42,-99.99,,,-99.99,,2013-06-14 22:22:00,
2013-06-14 15:33:00,68.0,44.0,-100.00,SE,135,0.0,2.0,42,-99.99,,,-99.99,,2013-06-14 22:33:00,
2013-06-14 15:43:00,68.0,44.0,-100.00,SE,135,0.0,2.0,42,-99.99,,,-99.99,,2013-06-14 22:43:00,
2013-06-14 15:53:00,69.0,45.0,-100.00,NW,315,0.0,1.0,43,-99.99,,,-99.99,,2013-06-14 22:53:00,
2013-06-14 16:01:00,69.0,45.0,-100.00,NW,315,0.0,1.0,43,-99.99,,,-99.99,,2013-06-14 23:01:00,
2013-06-14 16:11:00,69.0,44.0,-100.00,SE,135,1.0,2.0,40,-99.99,,,-99.99,,2013-06-14 23:11:00,
2013-06-14 16:33:00,68.0,44.0,-100.00,NE,45,1.0,2.0,42,-99.99,,,-99.99,,2013-06-14 23:33:00,
2013-06-14 16:43:00,70.0,45.0,-100.00,North,-999,0.0,0.0,41,-99.99,,,-99.99,,2013-06-14 23:43:00,
2013-06-14 16:52:00,71.0,46.0,-100.00,North,0,0.0,1.0,41,-99.99,,,-99.99,,2013-06-14 23:52:00,
2013-06-14 17:01:00,71.0,46.0,-100.00,North,0,0.0,1.0,41,-99.99,,,-99.99,,2013-06-15 00:01:00,
2013-06-14 17:11:00,71.0,46.0,-100.00,North,0,0.0,1.0,41,-99.99,,,-99.99,,2013-06-15 00:11:00,
2013-06-14 17:22:00,71.0,45.0,-100.00,NE,45,1.0,3.0,40,-99.99,,,-99.99,,2013-06-15 00:22:00,
2013-06-14 17:33:00,71.0,45.0,-100.00,NE,45,1.0,3.0,40,-99.99,,,-99.99,,2013-06-15 00:33:00,
2013-06-14 17:43:00,71.0,45.0,-100.00,NE,45,1.0,3.0,40,-99.99,,,-99.99,,2013-06-15 00:43:00,
2013-06-14 17:53:00,70.0,45.0,-100.00,SE,135,2.0,3.0,41,-99.99,,,-99.99,,2013-06-15 00:53:00,
2013-06-14 18:11:00,71.0,46.0,-100.00,North,-999,0.0,0.0,41,-99.99,,,-99.99,,2013-06-15 01:11:00,
2013-06-14 18:22:00,70.0,46.0,-100.00,North,0,0.0,1.0,42,-99.99,,,-99.99,,2013-06-15 01:22:00,
2013-06-14 18:33:00,71.0,46.0,-100.00,NW,315,0.0,1.0,41,-99.99,,,-99.99,,2013-06-15 01:33:00,
2013-06-14 18:43:00,71.0,46.0,-100.00,NW,315,0.0,1.0,41,-99.99,,,-99.99,,2013-06-15 01:43:00,
2013-06-14 18:54:00,69.0,45.0,-100.00,North,-999,0.0,0.0,42,-99.99,,,-99.99,,2013-06-15 01:54:00,
2013-06-14 19:02:00,70.0,46.0,-100.00,North,-999,0.0,0.0,43,-99.99,,,-99.99,,2013-06-15 02:02:00,
2013-06-14 19:11:00,70.0,46.0,-100.00,North,-999,0.0,0.0,43,-99.99,,,-99.99,,2013-06-15 02:11:00,
2013-06-14 19:22:00,70.0,46.0,-100.00,North,-999,0.0,0.0,43,-99.99,,,-99.99,,2013-06-15 02:22:00,
2013-06-14 19:33:00,67.0,46.0,-100.00,NE,45,1.0,1.0,47,-99.99,,,-99.99,,2013-06-15 02:33:00,
2013-06-14 19:43:00,65.0,46.0,-100.00,North,-999,0.0,0.0,50,-99.99,,,-99.99,,2013-06-15 02:43:00,
2013-06-14 19:53:00,65.0,46.0,-100.00,North,-999,0.0,0.0,52,-99.99,,,-99.99,,2013-06-15 02:53:00,
2013-06-14 20:01:00,64.0,47.0,-100.00,North,-999,0.0,0.0,54,-99.99,,,-99.99,,2013-06-15 03:01:00,
2013-06-14 20:11:00,64.0,47.0,-100.00,North,-999,0.0,0.0,54,-99.99,,,-99.99,,2013-06-15 03:11:00,
2013-06-14 20:23:00,63.0,48.0,-100.00,North,-999,0.0,0.0,58,-99.99,,,-99.99,,2013-06-15 03:23:00,
2013-06-14 20:32:00,63.0,48.0,-100.00,North,-999,0.0,0.0,58,-99.99,,,-99.99,,2013-06-15 03:32:00,
2013-06-14 20:43:00,63.0,49.0,-100.00,North,-999,0.0,0.0,61,-99.99,,,-99.99,,2013-06-15 03:43:00,
2013-06-14 20:53:00,62.0,49.0,-100.00,North,-999,0.0,0.0,63,-99.99,,,-99.99,,2013-06-15 03:53:00,
2013-06-14 21:01:00,61.0,50.0,-100.00,North,-999,0.0,0.0,68,-99.99,,,-99.99,,2013-06-15 04:01:00,
2013-06-14 21:11:00,61.0,50.0,-100.00,North,-999,0.0,0.0,68,-99.99,,,-99.99,,2013-06-15 04:11:00,
2013-06-14 21:22:00,59.0,50.0,-100.00,North,-999,0.0,0.0,72,-99.99,,,-99.99,,2013-06-15 04:22:00,
2013-06-14 21:34:00,59.0,50.0,-100.00,North,-999,0.0,0.0,72,-99.99,,,-99.99,,2013-06-15 04:34:00,
2013-06-14 21:43:00,58.0,50.0,-100.00,North,-999,0.0,0.0,76,-99.99,,,-99.99,,2013-06-15 04:43:00,
2013-06-14 21:54:00,57.0,50.0,-100.00,North,-999,0.0,0.0,79,-99.99,,,-99.99,,2013-06-15 04:54:00,
2013-06-14 22:02:00,56.0,50.0,-100.00,North,-999,0.0,0.0,80,-99.99,,,-99.99,,2013-06-15 05:02:00,
2013-06-14 22:12:00,56.0,50.0,-100.00,North,-999,0.0,0.0,80,-99.99,,,-99.99,,2013-06-15 05:12:00,
2013-06-14 22:22:00,55.0,50.0,-100.00,North,-999,0.0,0.0,82,-99.99,,,-99.99,,2013-06-15 05:22:00,
2013-06-14 22:34:00,55.0,50.0,-100.00,North,-999,0.0,0.0,82,-99.99,,,-99.99,,2013-06-15 05:34:00,
2013-06-14 22:42:00,54.0,49.0,-100.00,North,-999,0.0,0.0,84,-99.99,,,-99.99,,2013-06-15 05:42:00,
2013-06-14 22:52:00,54.0,49.0,-100.00,North,-999,0.0,0.0,85,-99.99,,,-99.99,,2013-06-15 05:52:00,
2013-06-14 23:02:00,54.0,49.0,-100.00,North,-999,0.0,0.0,85,-99.99,,,-99.99,,2013-06-15 06:02:00,
2013-06-14 23:12:00,53.0,49.0,-100.00,North,-999,0.0,0.0,86,-99.99,,,-99.99,,2013-06-15 06:12:00,
2013-06-14 23:24:00,53.0,49.0,-100.00,North,-999,0.0,0.0,86,-99.99,,,-99.99,,2013-06-15 06:24:00,
2013-06-14 23:33:00,52.0,49.0,-100.00,North,-999,0.0,0.0,87,-99.99,,,-99.99,,2013-06-15 06:33:00,
2013-06-14 23:43:00,52.0,49.0,-100.00,North,-999,0.0,0.0,87,-99.99,,,-99.99,,2013-06-15 06:43:00,
2013-06-14 23:53:00,52.0,48.0,-100.00,North,-999,0.0,0.0,88,-99.99,,,-99.99,,2013-06-15 06:53:00,